Location: Chanteloup
(48.8560°N, 2.7390°E)
Time: 19:27:38
(UTC+00:00)

X-37B - Pass Details

Date: 24 October 2021
Orbit: 329 x 342 km, 45.0° (Epoch: 06 December)

Event Time Altitude Azimuth Distance (km) Brightness Sun altitude
Rises 17:37:51 0° 268° (W) 2,122 6.6 -9.8°
Reaches altitude 10° 17:40:00 10° 256° (WSW) 1,285 4.8 -10.1°
Maximum altitude 17:42:32 28° 194° (SSW) 681 2.0 -10.5°
Drops below altitude 10° 17:45:04 10° 133° (SE) 1,285 2.8 -11.0°
Enters shadow 17:45:06 10° 132° (SE) 1,302 2.8 -11.0°
